Location: Lobstick
(53.6000°N, 115.1667°W)
Time: 22:32:20
(UTC+00:00)

Gurwin Techsat 1B - Visible Passes

Search period start: 29 November 2023 00:00
Search period end: 09 December 2023 00:00
Orbit: 810 x 813 km, 98.9° (Epoch: 29 November)

Date Brightness Start Highest point End Pass type
(mag) Time Alt. Az. Time Alt. Az. Time Alt. Az.
29 Nov 11.3 10:38:26 10° NNE 10:38:52 12° NNE 10:38:52 12° NNE visible
29 Nov 10.4 12:18:30 10° N 12:20:03 19° N 12:20:03 19° N visible
30 Nov 10.6 11:55:12 10° N 11:56:33 18° N 11:56:33 18° N visible
30 Nov 10.5 13:36:43 10° NNW 13:37:44 12° NNW 13:37:44 12° NNW visible
01 Dec 10.8 11:31:59 10° NNE 11:33:02 16° NNE 11:33:02 16° NNE visible
01 Dec 10.5 13:12:56 10° N 13:14:13 14° NNW 13:14:13 14° NNW visible
02 Dec 11.1 11:08:50 10° NNE 11:09:32 14° NNE 11:09:32 14° NNE visible
02 Dec 10.5 12:49:23 10° N 12:50:43 16° NNW 12:50:43 16° NNW visible
03 Dec 11.4 10:45:47 10° NNE 10:46:02 11° NNE 10:46:02 11° NNE visible
03 Dec 10.6 12:25:58 10° N 12:27:13 16° N 12:27:13 16° N visible
04 Dec 10.7 12:02:39 10° N 12:03:43 16° N 12:03:43 16° N visible
04 Dec 10.6 13:44:25 10° NNW 13:44:53 11° NNW 13:44:53 11° NNW visible
05 Dec 10.9 11:39:23 10° NNE 11:40:13 15° NNE 11:40:13 15° NNE visible
05 Dec 10.6 13:20:29 10° N 13:21:24 13° NNW 13:21:24 13° NNW visible
06 Dec 11.1 11:16:13 10° NNE 11:16:43 13° NNE 11:16:43 13° NNE visible
06 Dec 10.6 12:56:53 10° N 12:57:54 14° NNW 12:57:54 14° NNW visible
07 Dec 11.4 10:53:08 10° NNE 10:53:14 10° NNE 10:53:14 10° NNE visible
07 Dec 10.7 12:33:26 10° N 12:34:24 15° N 12:34:24 15° N visible
08 Dec 10.8 12:10:05 10° N 12:10:55 14° N 12:10:55 14° N visible
